Date String (YYYY-MM-DD hh:mm:ss) UTC,Instrument flags,absolute air pressure of the measurement (hPa),sample flow rate (lpm),inlet stack bypass flow (lpm),air temperature of the measurement (°C),ambient temperature measured by the external sensor (°C),aerosol sample conditioner tube jacket temperature (°C),OPC LED temperature (°C),internal box temperature (°C),relative humidity of the measurement (%),span deviation,mass concentration of particles derived from Lorenz-Mie calculation of OPC scattering (μg/m³),mass concentration of particles derived from Lorenz-Mie calculation of OPC scattering (μg/m³),mass concentration of particles derived from Lorenz-Mie calculation of OPC scattering (μg/m³)
DateTimeUTC,F1_M11,P_M11,Q1_M11,Q2_M11,T1_M11,T2_M11,T3_M11,T4_M11,T5_M11,U1_M11,ZSPAN_M11,X0_M11,X2_M11,X1_M11
2023-09-26 07:00:00,SystemResetWarning,0835.9,5.01,000.00,028.7,027.4,000.0,037.1,030.3,11.3,0000.3,0011.47,0004.49,0003.63
2023-09-26 07:01:00,SystemResetWarning,0835.9,5.01,000.00,028.7,027.4,000.0,037.1,030.3,11.3,0000.7,0012.41,0004.46,0003.63
2023-09-26 07:02:00,SystemResetWarning,0835.9,5.00,000.00,028.7,027.4,000.0,037.1,030.3,11.3,0000.0,0013.85,0004.45,0003.63
2023-09-26 07:03:00,SystemResetWarning,0835.9,5.00,000.00,028.7,027.4,000.0,037.1,030.3,11.3,0000.0,0014.68,0004.44,0003.61
2023-09-26 07:04:00,SystemResetWarning,0835.9,5.00,000.00,028.7,027.4,000.0,037.1,030.3,11.3,0000.0,0015.18,0004.39,0003.59
2023-09-26 07:05:00,SystemResetWarning,0835.9,5.00,000.00,028.7,027.4,000.0,037.1,030.4,11.3,0000.0,0016.02,0004.39,0003.59
2023-09-26 07:06:00,SystemResetWarning,0835.9,5.00,000.00,028.7,027.4,000.0,037.1,030.4,11.3,0000.0,0016.39,0004.36,0003.59
2023-09-26 07:07:00,SystemResetWarning,0836.0,5.00,000.00,028.7,027.4,000.0,037.1,030.4,11.3,0000.0,0016.75,0004.37,0003.59
2023-09-26 07:08:00,SystemResetWarning,0836.0,4.99,000.00,028.8,027.4,000.0,037.1,030.4,11.4,0000.0,0017.18,0004.40,0003.59
2023-09-26 07:09:00,SystemResetWarning,0836.0,5.00,000.00,028.8,027.4,000.0,037.2,030.4,11.1,0000.0,0017.01,0004.40,0003.60
2023-09-26 07:10:00,SystemResetWarning,0835.9,5.00,000.00,028.8,027.4,000.0,037.2,030.4,11.2,0000.0,0017.82,0004.46,0003.61
2023-09-26 07:11:00,SystemResetWarning,0836.0,5.00,000.00,028.8,027.4,000.0,037.2,030.4,11.0,0000.0,0017.50,0004.50,0003.63
2023-09-26 07:12:00,SystemResetWarning,0836.0,5.01,000.00,028.8,027.5,000.0,037.2,030.4,11.1,0000.0,0015.94,0004.51,0003.65
2023-09-26 07:13:00,SystemResetWarning,0835.9,5.01,000.00,028.8,027.5,000.0,037.2,030.4,11.0,0000.0,0014.33,0004.52,0003.66
2023-09-26 07:14:00,SystemResetWarning,0835.9,5.01,000.00,028.8,027.5,000.0,037.2,030.4,11.0,0000.0,0014.00,0004.56,0003.67
2023-09-26 07:15:00,SystemResetWarning,0835.9,4.99,000.00,028.8,027.5,000.0,037.2,030.4,11.1,0000.0,0013.78,0004.57,0003.68
2023-09-26 07:16:00,SystemResetWarning,0835.9,4.99,000.00,028.8,027.5,000.0,037.2,030.4,11.0,0000.3,0013.87,0004.58,0003.69
2023-09-26 07:17:00,SystemResetWarning,0835.9,5.00,000.00,028.8,027.5,000.0,037.2,030.4,10.9,0001.3,0013.74,0004.61,0003.68
2023-09-26 07:18:00,SystemResetWarning,0835.9,5.01,000.00,028.8,027.5,000.0,037.2,030.4,11.0,0002.1,0014.68,0004.64,0003.68
2023-09-26 07:19:00,SystemResetWarning,0835.9,5.00,000.00,028.8,027.5,000.0,037.2,030.4,11.0,0002.5,0013.69,0004.64,0003.69
2023-09-26 07:20:00,SystemResetWarning,0835.9,5.00,000.00,028.8,027.5,000.0,037.2,030.4,11.0,0002.1,0013.58,0004.65,0003.69
2023-09-26 07:21:00,SystemResetWarning,0836.0,5.00,000.00,028.8,027.5,000.0,037.3,030.4,11.0,0001.9,0013.90,0004.66,0003.70
2023-09-26 07:22:00,SystemResetWarning,0835.9,5.00,000.00,028.8,027.5,000.0,037.3,030.4,11.0,0001.4,0014.08,0004.67,0003.70
2023-09-26 07:23:00,SystemResetWarning,0835.9,4.99,000.00,028.8,027.5,000.0,037.3,030.4,11.0,0001.6,0015.86,0004.71,0003.68
2023-09-26 07:24:00,SystemResetWarning,0835.9,4.99,000.00,028.8,027.5,000.0,037.3,030.4,11.1,0001.4,0016.10,0004.71,0003.67
2023-09-26 07:25:00,SystemResetWarning,0835.9,5.00,000.00,028.8,027.5,000.0,037.3,030.4,11.0,0001.5,0015.61,0004.67,0003.66
2023-09-26 07:26:00,SystemResetWarning,0835.8,5.00,000.00,028.9,027.5,000.0,037.3,030.4,11.0,0000.0,0015.96,0004.63,0003.65
2023-09-26 07:27:00,SystemResetWarning,0835.9,5.00,000.00,028.9,027.5,000.0,037.3,030.4,11.1,0000.0,0015.25,0004.65,0003.65
2023-09-26 07:28:00,SystemResetWarning,0835.9,5.01,000.00,028.9,027.5,000.0,037.3,030.5,11.1,0000.0,0014.81,0004.64,0003.66
2023-09-26 07:29:00,SystemResetWarning,0835.9,5.00,000.00,028.9,027.5,000.0,037.3,030.5,11.1,0000.0,0014.00,0004.58,0003.66
2023-09-26 07:30:00,SystemResetWarning,0835.9,5.00,000.00,028.9,027.5,000.0,037.3,030.5,11.1,0000.0,0014.12,0004.55,0003.66
2023-09-26 07:31:00,SystemResetWarning,0835.9,5.01,000.00,028.9,027.5,000.0,037.3,030.5,11.1,0000.0,0014.24,0004.55,0003.67
2023-09-26 07:32:00,SystemResetWarning,0835.9,5.01,000.00,028.9,027.5,000.0,037.3,030.5,11.1,0000.0,0014.17,0004.56,0003.66
2023-09-26 07:33:00,SystemResetWarning,0835.9,5.00,000.00,028.9,027.5,000.0,037.3,030.5,11.1,0000.0,0014.43,0004.56,0003.66
2023-09-26 07:34:00,SystemResetWarning,0835.9,4.99,000.00,028.9,027.6,000.0,037.3,030.5,11.0,0000.2,0012.98,0004.53,0003.65
2023-09-26 07:35:00,SystemResetWarning,0835.9,4.99,000.00,028.9,027.5,000.0,037.3,030.5,11.0,0000.4,0012.38,0004.52,0003.67
2023-09-26 07:36:00,SystemResetWarning,0835.9,5.00,000.00,028.9,027.5,000.0,037.3,030.5,11.0,0000.0,0012.32,0004.55,0003.67
2023-09-26 07:37:00,SystemResetWarning,0835.9,5.00,000.00,028.9,027.5,000.0,037.3,030.5,11.0,0000.0,0012.04,0004.59,0003.69
2023-09-26 07:38:00,SystemResetWarning,0835.9,5.01,000.00,028.9,027.5,000.0,037.3,030.5,11.0,0000.2,0012.25,0004.62,0003.70
2023-09-26 07:39:00,SystemResetWarning,0835.9,5.00,000.00,028.9,027.5,000.0,037.3,030.5,11.0,0000.5,0012.45,0004.61,0003.70
2023-09-26 07:40:00,SystemResetWarning,0835.9,5.00,000.00,028.9,027.5,000.0,037.4,030.5,11.0,0000.5,0012.69,0004.65,0003.69
2023-09-26 07:41:00,SystemResetWarning,0835.9,5.01,000.00,028.9,027.5,000.0,037.4,030.5,11.0,0000.3,0011.99,0004.64,0003.69
2023-09-26 07:42:00,SystemResetWarning,0835.8,5.00,000.00,028.9,027.5,000.0,037.4,030.5,11.0,0000.1,0011.80,0004.60,0003.69
2023-09-26 07:43:00,SystemResetWarning,0835.9,5.00,000.00,028.9,027.5,000.0,037.4,030.5,11.0,-000.0,0011.03,0004.59,0003.68
2023-09-26 07:44:00,SystemResetWarning,0835.8,4.99,000.00,028.9,027.5,000.0,037.4,030.5,11.1,0000.1,0010.32,0004.59,0003.68
2023-09-26 07:45:00,SystemResetWarning,0835.8,5.00,000.00,028.9,027.5,000.0,037.4,030.5,11.1,0000.0,0010.65,0004.63,0003.70
2023-09-26 07:46:00,SystemResetWarning,0835.9,5.00,000.00,028.9,027.5,000.0,037.4,030.5,11.1,0000.0,0010.89,0004.64,0003.70
2023-09-26 07:47:00,SystemResetWarning,0835.9,4.99,000.00,028.9,027.5,000.0,037.4,030.5,11.0,0000.1,0010.84,0004.64,0003.70
2023-09-26 07:48:00,SystemResetWarning,0835.8,5.00,000.00,028.9,027.5,000.0,037.4,030.5,11.0,0000.0,0011.04,0004.64,0003.70
2023-09-26 07:49:00,SystemResetWarning,0835.8,5.01,000.00,028.9,027.5,000.0,037.4,030.5,11.1,0000.0,0010.54,0004.60,0003.68
2023-09-26 07:50:00,SystemResetWarning,0835.8,5.01,000.00,028.9,027.5,000.0,037.4,030.5,11.1,0000.0,0010.34,0004.57,0003.68
2023-09-26 07:51:00,SystemResetWarning,0835.8,5.01,000.00,028.9,027.5,000.0,037.4,030.5,11.1,0000.0,0010.08,0004.55,0003.68
2023-09-26 07:52:00,SystemResetWarning,0835.9,5.01,000.00,028.9,027.5,000.0,037.4,030.5,11.1,0000.0,0010.62,0004.56,0003.68
2023-09-26 07:53:00,SystemResetWarning,0835.8,4.99,000.00,028.9,027.6,000.0,037.4,030.5,11.1,0000.0,0011.06,0004.60,0003.68
2023-09-26 07:54:00,SystemResetWarning,0835.8,5.00,000.00,028.9,027.6,000.0,037.4,030.5,11.1,0000.0,0011.22,0004.60,0003.69
2023-09-26 07:55:00,SystemResetWarning,0835.8,5.00,000.00,028.9,027.6,000.0,037.4,030.5,11.1,0000.0,0011.29,0004.60,0003.70
2023-09-26 07:56:00,SystemResetWarning,0835.8,5.00,000.00,028.9,027.6,000.0,037.4,030.5,11.1,0000.0,0010.95,0004.58,0003.71
2023-09-26 07:57:00,SystemResetWarning,0835.8,5.00,000.00,028.9,027.6,000.0,037.4,030.5,11.1,0000.0,0010.56,0004.59,0003.72
2023-09-26 07:58:00,SystemResetWarning,0835.8,5.00,000.00,028.9,027.6,000.0,037.4,030.5,11.1,0000.0,0010.89,0004.58,0003.73
2023-09-26 07:59:00,SystemResetWarning,0835.8,4.99,000.00,028.9,027.6,000.0,037.4,030.5,11.1,0000.5,0011.30,0004.56,0003.74
